カタログに戻る

FENGYUN 1C DEB

運用中SSO
NORAD 38158·DEBRIS·🇨🇳 China

打ち上げ May 10, 1999 から Taiyuan Satellite Launch Center

Loading…

次のパス (今後24時間)

TLE

経年Source: Space-Track

元期: Sep 8, 2026, 07:23 UTC

1 38158U 99025ERF 26251.30802834  .00000781  00000-0  76375-3 0  9991
2 38158  99.2664 274.5002 0214967 102.5439 259.9845 13.72283541605791

AllMySatでFENGYUN 1C DEBをリアルタイム追跡

Download on the App Store